This is the latest recevied weather packets stored in our database for station/object KD2SIG. If no packets are shown the sender has not sent any weather packets the latest 10 day(s).
| Time | Temp. | Humidity | Pressure | Rain* | Wind** | Luminosity | Snow |
|---|---|---|---|---|---|---|---|
| 1777557349 | 6.11° C | 97% | 1009.1 hPa | 0 mm | - | 70 W/m² | - |
| 1777557045 | 6.11° C | 97% | 1009.3 hPa | 0 mm | - | 75 W/m² | - |
| 1777556741 | 6.11° C | 97% | 1009.4 hPa | 0 mm | - | 82 W/m² | - |
| 1777556438 | 6.11° C | 97% | 1009.3 hPa | 0 mm | - | 85 W/m² | - |
| 1777556138 | 6.11° C | 97% | 1009.4 hPa | 0 mm | - | 88 W/m² | - |
| 1777555833 | 6.11° C | 97% | 1009.3 hPa | 0 mm | - | 81 W/m² | - |
| 1777555529 | 5.56° C | 97% | 1009.3 hPa | 0 mm | - | 72 W/m² | - |
| 1777555226 | 6.11° C | 98% | 1009.2 hPa | 0 mm | - | 57 W/m² | - |
| 1777554923 | 6.11° C | 97% | 1009.1 hPa | 0 mm | - | 74 W/m² | - |
| 1777554620 | 5.56° C | 98% | 1009.2 hPa | 0 mm | - | 71 W/m² | - |
| 1777554316 | 5.56° C | 98% | 1009.3 hPa | 0 mm | - | 70 W/m² | - |
| 1777554014 | 5.56° C | 98% | 1009.4 hPa | 0 mm | - | 47 W/m² | - |
| 1777553710 | 5.56° C | 98% | 1009.1 hPa | 0 mm | - | 41 W/m² | - |
| 1777553407 | 5.56° C | 98% | 1009.3 hPa | 0 mm | - | 42 W/m² | - |
| 1777553104 | 5.56° C | 98% | 1009.3 hPa | 0 mm | - | 39 W/m² | - |
| 1777552803 | 6.11° C | 98% | 1009.4 hPa | 0 mm | - | 39 W/m² | - |
| 1777552499 | 6.11° C | 98% | 1009.1 hPa | 0 mm | - | 33 W/m² | - |
| 1777552195 | 6.11° C | 98% | 1009.1 hPa | 0 mm | - | 29 W/m² | - |
| 1777551892 | 6.11° C | 98% | 1009.1 hPa | 0 mm | - | 30 W/m² | - |
| 1777551590 | 6.11° C | 98% | 1009.2 hPa | 0 mm | - | 32 W/m² | - |
| 1777551287 | 6.11° C | 98% | 1009.2 hPa | 0 mm | - | 35 W/m² | - |
| 1777550983 | 6.11° C | 98% | 1009.1 hPa | 0 mm | - | 43 W/m² | - |
| 1777550681 | 6.11° C | 98% | 1009.2 hPa | 0 mm | - | 38 W/m² | - |
| 1777550376 | 6.11° C | 98% | 1009.4 hPa | 0 mm | - | 31 W/m² | - |
| 1777550073 | 6.11° C | 98% | 1009.2 hPa | 0 mm | - | 29 W/m² | - |
* Rain latest hour (hover to see other rain measurements)
** Current wind speed in m/s (hover to see current wind gust speed)